#timestamp,LO_Frequency,Hit,StdDev 
1537340415.5,286046997.2,N
1537340435.3,286046996.7,N
1537340455.2,286047000.7,N
1537340475.0,286047000.2,N
1537340475.9,286047000.2,N
1537340495.7,286046998.2,N
1537340515.6,286047000.7,N
1537340535.4,286047000.0,N
1537340555.3,286047000.5,N
1537340575.1,286047000.2,N
1537340576.0,286047000.2,N
1537340595.8,286046998.8,N
1537340615.7,286046996.5,N
1537340635.5,286046996.6,N
1537340655.3,286046999.4,N
1537340675.2,286046997.6,N
1537340695.0,286046995.3,N
1537340695.9,286046995.3,N
1537340715.8,286046996.5,N
1537340735.6,286046997.5,N
1537340755.4,286046997.3,N
1537340775.3,286046997.2,N
1537340795.1,286046999.3,N
1537340815.8,286046999.2,N
1537340835.7,286046996.9,N
1537340855.5,286046996.8,N
1537340875.4,286046998.0,N
1537340895.2,286046996.0,N
1537340915.0,286046996.2,N
1537340915.9,286046996.2,N
1537340935.8,286046996.3,N
1537340955.6,286046995.4,N
1537340975.4,286046997.4,N
1537340995.3,286046998.0,N
1537341015.1,286046996.8,N
1537341035.9,286047001.0,N
1537341055.7,286047000.3,N
1537341075.5,286047002.4,N
1537341095.4,286046998.3,N
1537341115.2,286046996.5,N
1537341135.0,286046996.9,N
1537341135.9,286046996.9,N
1537341155.8,286047000.4,N
1537341175.6,286047001.0,N
1537341195.5,286046998.1,N
1537341215.3,286047000.6,N
1537341235.1,286047000.7,N
1537341255.9,286047000.4,N
1537341275.7,286047000.6,N
1537341295.5,286047000.3,N
1537341315.4,286047000.2,N
1537341335.2,286047002.2,N
1537341355.0,286047000.7,N
1537341356.0,286047000.7,N
1537341375.8,286046998.2,N
1537341395.6,286046997.2,N
1537341415.5,286047000.9,N
1537341435.3,286047002.2,N
1537341455.1,286047000.9,N
1537341475.9,286047000.4,N
1537341495.7,286047001.5,N
1537341515.5,286047003.5,N
1537341535.4,286047003.8,N
1537341555.2,286047002.9,N
1537341575.1,286047003.4,N
1537341576.0,286047003.4,N
1537341595.8,286047001.9,N
1537341615.6,286047002.1,N
1537341635.5,286047000.1,N
1537341655.3,286047002.3,N
1537341675.1,286047000.5,N
1537341695.9,286047000.0,N
1537341715.7,286047002.2,N
1537341735.6,286047004.0,N
1537341755.4,286047002.4,N
1537341775.2,286047001.8,N
1537341795.1,286047002.8,N
1537341796.0,286047002.8,N
1537341815.8,286047002.5,N
1537341835.6,286047000.5,N
1537341855.5,286047000.1,N
1537341875.3,286047004.1,N
1537341895.1,286047003.3,N
1537341915.9,286047003.6,N
1537341935.7,286047004.3,N
1537341955.6,286047003.7,N
1537341975.4,286047004.3,Y
1537341995.2,286046998.2,P
1537342015.1,286047001.4,N
1537342016.0,286047001.4,N
1537342035.8,286047000.1,N
1537342055.7,286047002.0,N
1537342075.5,286047001.6,N
1537342095.3,286047002.5,N
1537342115.2,286047002.8,N
1537342135.0,286047002.2,N
1537342135.9,286047002.2,N
1537342155.7,286047002.5,N
1537342175.6,286047000.8,N
1537342195.4,286047000.4,N
1537342215.3,286046999.7,N
1537342235.1,286047002.0,N
1537342236.0,286047002.0,N
1537342255.8,286047003.1,N
1537342275.7,286046999.8,N
1537342295.5,286047000.5,N
1537342315.3,286047000.7,N
1537342335.2,286046998.8,N
1537342355.0,286046999.6,N
1537342355.9,286046999.6,N
1537342375.8,286046999.1,N
1537342395.6,286047001.2,N
1537342415.4,286046999.1,N
1537342435.3,286047000.3,N
1537342455.1,286046998.9,N
1537342475.8,286046999.1,N
1537342525.7,286047001.0,E
1537342535.6,286047000.7,N
1537342555.5,286046999.9,P
1537342575.3,286046998.4,P
1537342595.1,286047000.7,N
1537342615.9,286046998.6,N
1537342635.7,286047000.8,N
1537342655.5,286046999.2,N
1537342675.4,286046997.7,N
1537342695.2,286046997.3,N
1537342715.1,286046998.6,N
1537342716.0,286046998.6,N
1537342735.8,286046998.1,N
1537342755.6,286046999.2,N
1537342775.5,286047000.3,N
1537342795.3,286047000.3,N
1537342815.1,286047000.0,N
1537342835.9,286046997.4,N
1537342855.7,286046995.0,Y
1537342875.6,286046999.5,P
1537342895.4,286047001.2,P
1537342915.2,286046998.9,N
1537342935.1,286046995.7,Y
1537342936.0,286046995.7,P
1537342955.8,286046993.9,P
1537342975.7,286046994.6,N
1537342995.5,286046997.4,N
1537343015.3,286046999.2,N
1537343035.2,286046998.0,N
1537343055.9,286046997.9,N
1537343075.7,286046997.4,N
1537343095.6,286046997.5,N
1537343115.4,286046995.1,N
1537343135.2,286046996.3,N
1537343155.1,286046994.3,Y
1537343156.0,286046994.3,P
1537343175.8,286046997.3,N
1537343195.7,286046997.2,N
1537343215.5,286046997.6,N
1537343235.3,286046997.2,N
1537343255.2,286046995.5,Y
1537343275.0,286047001.8,P
1537343275.9,286047001.8,N
1537343295.8,286047000.3,N
1537343315.6,286047001.6,N
1537343335.4,286047002.0,N
1537343355.3,286047005.4,N
1537343375.1,286047005.4,N
1537343395.8,286047005.5,N
1537343415.7,286047005.9,N
1537343435.5,286047001.9,N
1537343455.4,286047005.5,N
1537343475.2,286047004.8,N
1537343495.0,286047003.7,N
1537343495.9,286047003.7,N
1537343515.8,286047002.6,N
1537343535.6,286047000.3,N
1537343555.4,286046998.1,N
1537343575.3,286047002.8,N
1537343595.1,286047000.4,N
1537343615.8,286046996.6,N
1537343635.7,286046997.5,N
1537343655.5,286046998.1,N
1537343675.4,286046997.4,N
1537343695.2,286047000.3,N
1537343715.0,286046998.4,N
1537343715.9,286046998.4,N
1537343735.8,286046996.7,N
1537343755.6,286046997.7,N
1537343775.4,286046999.6,N
1537343795.3,286046995.6,N
1537343815.1,286046993.7,N
1537343835.9,286046998.3,N
1537343855.7,286046998.4,N
1537343875.5,286046996.9,N
1537343895.4,286047001.2,N
1537343915.2,286047001.6,N
1537343935.0,286047001.3,N
1537343935.9,286047001.3,N
1537343955.8,286047000.0,N
1537343975.6,286046998.6,N
1537343995.5,286047002.0,N
